Portada
METAR-TAF:

METAR-TAF

Aeroports :

South Wood County Airport (Alexander Field)

Wisconsin Rapids, Wisconsin, Estats Units d'Amèrica

latitud: 44-21-33N, longitud: 089-50-13W, altitud: 311 m

Observació

L'informe es va fer fa 30 minuts, a les 18:54 UTC
Vent 7 kt del Oest/Nord-Oest
Temperatura -6°C
Humitat 79%
Pressió 1020 hPa
Visibilitat: 4.8 km
Cel cobert a una alçada de 400 ft
calitja

METAR: KISW 101854Z AUTO 30007KT 3SM HZ OVC004 M06/M09 A3012 RMK AO2 SNE05 SLP222 P0000 T10611089 TSNO

Hora: 13:24 (19:24 UTC)


TAF: manca

Observacions i pronòstics meteorològics de més de 4000 aeroports (METAR i TAF).

Les estacions disponibles són els punts grocs i vermells al mapa.

Posi el ratolí al punt desitjat per veure el nom de l'estació.

Feu clic per veure les observacions i els pronòstics meteorològics.

Per canviar el mapa: feu clic els botons verds amb una creu de color negre per apropar; al botó verd amb un guió per allunyar la imatge; o en les fletxes verdes per a mapes adjacents.


METAR-TAF: